Back to catalog

NOAA 16

AliveWeatherSSO
NORAD 26536·PAYLOAD·🇺🇸 United States

Launched Sep 21, 2000 from Vandenberg Space Force Base

Loading…

Next Passes (next 24 hours)

TLE

FreshSource: Space-Track

Epoch: Sep 14, 2026, 12:59 UTC

1 26536U 00055A   26257.54146055  .00000025  00000-0  34539-4 0  9999
2 26536  98.4645 267.1122 0011361  49.1338 311.0818 14.13936317636354

Track NOAA 16 in real time with AllMySat

Download on the App Store